Orbital Elements at Epoch 2459200.5 (2020-Dec-17.0) TDB
Reference: JPL 24 (heliocentric ecliptic J2000)
Element | Value | Uncertainty (1-sigma) | Units |
e | .2405737277749211 | 3.5898e-08 | |
a | 2.351160201292771 | 7.2709e-09 | au |
q | 1.785532827071735 | 8.7357e-08 | au |
i | 7.411893765307045 | 4.5311e-06 | deg |
node | 202.7152846695685 | 2.6689e-05 | deg |
peri | 116.9081859555512 | 2.9317e-05 | deg |
M | 6.143478634798889 | 1.0605e-05 | deg |
tp | 2459178.028419909665 (2020-Nov-24.52841991) | 3.875e-05 | TDB |
period | 1316.805886928183 3.61 | 6.1082e-06 1.672e-08 | d yr |
n | .2733888142312307 | 1.2682e-09 | deg/d |
Q | 2.916787575513807 | 9.02e-09 | au |
|
| | Orbit Determination Parameters
Additional Information
|